Location: Vinland
(47.7731°N, 122.6974°W)
Time: 22:33:31
(UTC+00:00)

S-56A Canister/Altair - Pass Details

Date: 30 March 2023
Orbit: 639 x 2492 km, 38.9° (Epoch: 01 June)

Event Time Altitude Azimuth Distance (km) Brightness Sun altitude
Rises 07:48:24 0° 280° (W) 5,804 12.2 -38.2°
Reaches altitude 10° 07:52:37 10° 271° (W) 4,963 11.7 -38.3°
Enters shadow 08:00:18 27° 242° (WSW) 3,872 10.8 -38.4°
